Time,TemperatureF,DewpointF,PressureIn,WindDirection,WindDirectionDegrees,WindSpeedMPH,WindSpeedGustMPH,Humidity,HourlyPrecipIn,Conditions,Clouds,dailyrainin,SoftwareType,DateUTC
2013-10-13 00:01:00,52.9,50.0,30.34,East,90,8.4,13.0,89,0.00,,,0.00,Rainwise IP-100,2013-10-13 04:01:00,
2013-10-13 00:06:00,52.9,50.0,30.34,ENE,67,5.1,11.0,89,0.00,,,0.00,Rainwise IP-100,2013-10-13 04:06:00,
2013-10-13 00:11:00,52.8,50.0,30.34,ENE,67,5.1,10.0,89,0.00,,,0.00,Rainwise IP-100,2013-10-13 04:11:00,
2013-10-13 00:16:00,52.8,50.0,30.34,ENE,67,8.2,11.0,90,0.00,,,0.00,Rainwise IP-100,2013-10-13 04:16:00,
2013-10-13 00:21:00,52.7,50.0,30.34,East,90,4.0,9.0,90,0.00,,,0.00,Rainwise IP-100,2013-10-13 04:21:00,
2013-10-13 00:26:00,52.5,50.0,30.34,North,360,4.2,7.0,90,0.00,,,0.00,Rainwise IP-100,2013-10-13 04:26:00,
2013-10-13 00:31:00,52.3,49.0,30.34,ESE,112,3.0,7.0,90,0.00,,,0.00,Rainwise IP-100,2013-10-13 04:31:00,
2013-10-13 00:36:00,52.2,49.0,30.34,NE,45,5.4,7.0,90,0.00,,,0.00,Rainwise IP-100,2013-10-13 04:36:00,
2013-10-13 00:41:00,52.1,49.0,30.34,NE,45,4.7,8.0,91,0.00,,,0.00,Rainwise IP-100,2013-10-13 04:41:00,
2013-10-13 00:46:00,52.0,49.0,30.34,ENE,67,5.1,11.0,91,0.00,,,0.00,Rainwise IP-100,2013-10-13 04:46:00,
2013-10-13 00:51:00,51.9,49.0,30.34,ENE,67,4.4,12.0,91,0.00,,,0.00,Rainwise IP-100,2013-10-13 04:51:00,
2013-10-13 00:56:00,51.8,49.0,30.34,ENE,67,4.0,13.0,91,0.00,,,0.00,Rainwise IP-100,2013-10-13 04:56:00,
2013-10-13 01:01:00,51.8,49.0,30.34,ENE,67,4.7,11.0,91,0.00,,,0.00,Rainwise IP-100,2013-10-13 05:01:00,
2013-10-13 01:06:00,51.8,49.0,30.34,ENE,67,1.6,11.0,91,0.00,,,0.00,Rainwise IP-100,2013-10-13 05:06:00,
2013-10-13 01:11:00,51.7,49.0,30.34,ENE,67,5.1,10.0,91,0.00,,,0.00,Rainwise IP-100,2013-10-13 05:11:00,
2013-10-13 01:16:00,51.6,49.0,30.34,ENE,67,4.7,7.0,91,0.00,,,0.00,Rainwise IP-100,2013-10-13 05:16:00,
2013-10-13 01:21:00,51.5,49.0,30.34,East,90,3.3,8.0,91,0.00,,,0.00,Rainwise IP-100,2013-10-13 05:21:00,
2013-10-13 01:26:00,51.4,49.0,30.34,ENE,67,4.2,8.0,91,0.00,,,0.00,Rainwise IP-100,2013-10-13 05:26:00,
2013-10-13 01:31:00,51.2,49.0,30.34,ENE,67,3.7,8.0,91,0.00,,,0.00,Rainwise IP-100,2013-10-13 05:31:00,
2013-10-13 01:36:00,51.1,49.0,30.34,East,90,2.6,8.0,91,0.00,,,0.00,Rainwise IP-100,2013-10-13 05:36:00,
2013-10-13 01:41:00,51.0,49.0,30.34,NE,45,4.4,8.0,91,0.00,,,0.00,Rainwise IP-100,2013-10-13 05:41:00,
2013-10-13 01:46:00,51.0,49.0,30.35,NNE,22,4.9,7.0,91,0.00,,,0.00,Rainwise IP-100,2013-10-13 05:46:00,
2013-10-13 01:51:00,51.0,49.0,30.35,ENE,67,7.2,7.2,91,0.00,,,0.00,Rainwise IP-100,2013-10-13 05:51:00,
2013-10-13 01:56:00,51.0,49.0,30.35,ENE,67,4.7,8.0,91,0.00,,,0.00,Rainwise IP-100,2013-10-13 05:56:00,
2013-10-13 02:01:00,50.9,49.0,30.34,ENE,67,3.5,8.0,91,0.00,,,0.00,Rainwise IP-100,2013-10-13 06:01:00,
2013-10-13 02:06:00,50.9,49.0,30.34,NE,45,6.1,7.0,91,0.00,,,0.00,Rainwise IP-100,2013-10-13 06:06:00,
2013-10-13 02:11:00,50.9,49.0,30.34,ENE,67,2.1,9.0,91,0.00,,,0.00,Rainwise IP-100,2013-10-13 06:11:00,
2013-10-13 02:16:00,51.0,49.0,30.34,ENE,67,3.0,7.0,92,0.00,,,0.00,Rainwise IP-100,2013-10-13 06:16:00,
2013-10-13 02:21:00,51.1,49.0,30.34,ENE,67,3.0,7.0,92,0.00,,,0.00,Rainwise IP-100,2013-10-13 06:21:00,
2013-10-13 02:26:00,51.0,49.0,30.34,ENE,67,3.3,7.0,92,0.00,,,0.00,Rainwise IP-100,2013-10-13 06:26:00,
2013-10-13 02:31:00,50.9,49.0,30.33,ENE,67,2.3,5.0,92,0.00,,,0.00,Rainwise IP-100,2013-10-13 06:31:00,
2013-10-13 02:36:00,50.8,48.0,30.33,ENE,67,3.7,5.0,92,0.00,,,0.00,Rainwise IP-100,2013-10-13 06:36:00,
2013-10-13 02:41:00,50.7,48.0,30.33,ENE,67,5.4,6.0,92,0.00,,,0.00,Rainwise IP-100,2013-10-13 06:41:00,
2013-10-13 02:46:00,50.5,48.0,30.34,East,90,3.7,5.0,92,0.00,,,0.00,Rainwise IP-100,2013-10-13 06:46:00,
2013-10-13 02:51:00,50.4,48.0,30.33,ENE,67,3.3,6.0,92,0.00,,,0.00,Rainwise IP-100,2013-10-13 06:51:00,
2013-10-13 02:56:00,50.3,47.0,30.33,ENE,67,4.2,7.0,92,0.00,,,0.00,Rainwise IP-100,2013-10-13 06:56:00,
2013-10-13 03:01:00,50.2,47.0,30.33,East,90,4.2,7.0,93,0.00,,,0.00,Rainwise IP-100,2013-10-13 07:01:00,
2013-10-13 03:06:00,50.2,47.0,30.33,ENE,67,5.1,6.0,93,0.00,,,0.00,Rainwise IP-100,2013-10-13 07:06:00,
2013-10-13 03:11:00,50.2,47.0,30.33,ENE,67,4.2,5.0,93,0.00,,,0.00,Rainwise IP-100,2013-10-13 07:11:00,
2013-10-13 03:16:00,50.2,47.0,30.33,ENE,67,2.8,6.0,93,0.00,,,0.00,Rainwise IP-100,2013-10-13 07:16:00,
2013-10-13 03:21:00,50.2,47.0,30.33,ENE,67,3.7,5.0,93,0.00,,,0.00,Rainwise IP-100,2013-10-13 07:21:00,
2013-10-13 03:26:00,50.1,47.0,30.32,NE,45,4.7,5.0,93,0.00,,,0.00,Rainwise IP-100,2013-10-13 07:26:00,
2013-10-13 03:31:00,50.0,47.0,30.33,NE,45,4.0,5.0,93,0.00,,,0.00,Rainwise IP-100,2013-10-13 07:31:00,
2013-10-13 03:36:00,50.1,47.0,30.33,NE,45,2.6,6.0,93,0.00,,,0.00,Rainwise IP-100,2013-10-13 07:36:00,
2013-10-13 03:41:00,50.0,47.0,30.32,ENE,67,2.8,5.0,93,0.00,,,0.00,Rainwise IP-100,2013-10-13 07:41:00,
2013-10-13 03:46:00,50.0,47.0,30.32,NNE,22,4.2,7.0,93,0.00,,,0.00,Rainwise IP-100,2013-10-13 07:46:00,
2013-10-13 03:51:00,49.9,48.0,30.33,NNE,22,2.6,6.0,94,0.00,,,0.00,Rainwise IP-100,2013-10-13 07:51:00,
2013-10-13 03:56:00,49.8,48.0,30.33,NE,45,3.5,6.0,94,0.00,,,0.00,Rainwise IP-100,2013-10-13 07:56:00,
2013-10-13 04:01:00,49.9,48.0,30.33,NNE,22,2.1,7.0,94,0.00,,,0.00,Rainwise IP-100,2013-10-13 08:01:00,
2013-10-13 04:06:00,49.9,48.0,30.33,NE,45,5.4,8.0,94,0.00,,,0.00,Rainwise IP-100,2013-10-13 08:06:00,
2013-10-13 04:11:00,49.9,48.0,30.32,ENE,67,4.4,7.0,94,0.00,,,0.00,Rainwise IP-100,2013-10-13 08:11:00,
2013-10-13 04:16:00,49.9,48.0,30.32,NE,45,2.1,6.0,94,0.00,,,0.00,Rainwise IP-100,2013-10-13 08:16:00,
2013-10-13 04:21:00,50.0,48.0,30.33,ENE,67,3.3,6.0,94,0.00,,,0.00,Rainwise IP-100,2013-10-13 08:21:00,
2013-10-13 04:26:00,50.0,48.0,30.33,ENE,67,4.7,5.0,94,0.00,,,0.00,Rainwise IP-100,2013-10-13 08:26:00,
2013-10-13 04:31:00,50.0,48.0,30.33,ENE,67,4.0,6.0,94,0.00,,,0.00,Rainwise IP-100,2013-10-13 08:31:00,
2013-10-13 04:36:00,50.0,48.0,30.33,ENE,67,2.3,5.0,94,0.00,,,0.00,Rainwise IP-100,2013-10-13 08:36:00,
2013-10-13 04:41:00,50.1,48.0,30.33,ENE,67,5.8,8.0,94,0.00,,,0.00,Rainwise IP-100,2013-10-13 08:41:00,
2013-10-13 04:46:00,50.2,48.0,30.33,ENE,67,7.7,8.0,94,0.00,,,0.00,Rainwise IP-100,2013-10-13 08:46:00,
2013-10-13 04:51:00,50.4,49.0,30.33,ENE,67,3.3,9.0,94,0.00,,,0.00,Rainwise IP-100,2013-10-13 08:51:00,
2013-10-13 04:56:00,50.5,48.0,30.33,NE,45,3.5,7.0,93,0.00,,,0.00,Rainwise IP-100,2013-10-13 08:56:00,
2013-10-13 05:01:00,50.5,48.0,30.33,ENE,67,3.3,6.0,93,0.00,,,0.00,Rainwise IP-100,2013-10-13 09:01:00,
2013-10-13 05:06:00,50.6,48.0,30.33,ENE,67,3.3,7.0,93,0.00,,,0.00,Rainwise IP-100,2013-10-13 09:06:00,
2013-10-13 05:11:00,50.7,48.0,30.33,ENE,67,3.0,8.0,93,0.00,,,0.00,Rainwise IP-100,2013-10-13 09:11:00,
2013-10-13 05:16:00,50.9,49.0,30.34,ENE,67,4.9,10.0,93,0.00,,,0.00,Rainwise IP-100,2013-10-13 09:16:00,
2013-10-13 05:21:00,51.2,49.0,30.34,NE,45,6.8,9.0,93,0.00,,,0.00,Rainwise IP-100,2013-10-13 09:21:00,
2013-10-13 05:26:00,51.5,50.0,30.34,ENE,67,9.1,12.0,92,0.00,,,0.00,Rainwise IP-100,2013-10-13 09:26:00,
2013-10-13 05:31:00,51.5,50.0,30.34,NE,45,6.5,12.0,92,0.00,,,0.00,Rainwise IP-100,2013-10-13 09:31:00,
2013-10-13 05:36:00,51.7,49.0,30.34,ENE,67,9.1,9.1,91,0.00,,,0.00,Rainwise IP-100,2013-10-13 09:36:00,
2013-10-13 05:41:00,51.8,49.0,30.35,ENE,67,5.4,12.0,91,0.00,,,0.00,Rainwise IP-100,2013-10-13 09:41:00,
2013-10-13 05:46:00,52.0,49.0,30.35,East,90,5.1,10.0,90,0.00,,,0.00,Rainwise IP-100,2013-10-13 09:46:00,
2013-10-13 05:51:00,52.1,49.0,30.35,ENE,67,6.8,11.0,90,0.00,,,0.00,Rainwise IP-100,2013-10-13 09:51:00,
2013-10-13 05:56:00,52.1,49.0,30.34,ENE,67,4.2,10.0,90,0.00,,,0.00,Rainwise IP-100,2013-10-13 09:56:00,
2013-10-13 06:01:00,52.1,49.0,30.35,ENE,67,3.7,11.0,90,0.00,,,0.00,Rainwise IP-100,2013-10-13 10:01:00,
2013-10-13 06:06:00,52.1,49.0,30.35,East,90,4.0,9.0,90,0.00,,,0.00,Rainwise IP-100,2013-10-13 10:06:00,
2013-10-13 06:11:00,52.0,49.0,30.35,NE,45,7.0,12.0,90,0.00,,,0.00,Rainwise IP-100,2013-10-13 10:11:00,
2013-10-13 06:16:00,51.9,49.0,30.35,ENE,67,2.1,10.0,90,0.00,,,0.00,Rainwise IP-100,2013-10-13 10:16:00,
2013-10-13 06:21:00,51.8,49.0,30.35,East,90,4.9,12.0,90,0.00,,,0.00,Rainwise IP-100,2013-10-13 10:21:00,
2013-10-13 06:26:00,51.7,49.0,30.36,ENE,67,6.3,10.0,90,0.00,,,0.00,Rainwise IP-100,2013-10-13 10:26:00,
2013-10-13 06:31:00,51.6,49.0,30.35,East,90,2.3,9.0,90,0.00,,,0.00,Rainwise IP-100,2013-10-13 10:31:00,
2013-10-13 06:36:00,51.5,49.0,30.36,NE,45,3.0,9.0,90,0.00,,,0.00,Rainwise IP-100,2013-10-13 10:36:00,
2013-10-13 06:41:00,51.3,48.0,30.36,East,90,6.5,10.0,90,0.00,,,0.00,Rainwise IP-100,2013-10-13 10:41:00,
2013-10-13 06:46:00,51.3,48.0,30.36,ENE,67,4.7,9.0,90,0.00,,,0.00,Rainwise IP-100,2013-10-13 10:46:00,
2013-10-13 06:51:00,51.3,48.0,30.36,ENE,67,1.9,9.0,90,0.00,,,0.00,Rainwise IP-100,2013-10-13 10:51:00,
2013-10-13 06:56:00,51.3,48.0,30.36,ENE,67,8.2,9.0,90,0.00,,,0.00,Rainwise IP-100,2013-10-13 10:56:00,
2013-10-13 07:01:00,51.3,48.0,30.36,NE,45,7.9,10.0,90,0.00,,,0.00,Rainwise IP-100,2013-10-13 11:01:00,
2013-10-13 07:06:00,51.2,48.0,30.36,East,90,1.9,9.0,90,0.00,,,0.00,Rainwise IP-100,2013-10-13 11:06:00,
2013-10-13 07:11:00,51.2,48.0,30.37,ENE,67,4.2,7.0,90,0.00,,,0.00,Rainwise IP-100,2013-10-13 11:11:00,
2013-10-13 07:16:00,51.2,48.0,30.37,NE,45,5.1,7.0,90,0.00,,,0.00,Rainwise IP-100,2013-10-13 11:16:00,
2013-10-13 07:21:00,51.2,48.0,30.37,ENE,67,3.3,8.0,90,0.00,,,0.00,Rainwise IP-100,2013-10-13 11:21:00,
2013-10-13 07:26:00,51.4,48.0,30.38,ENE,67,5.1,7.0,90,0.00,,,0.00,Rainwise IP-100,2013-10-13 11:26:00,
2013-10-13 07:31:00,51.5,49.0,30.38,ENE,67,0.0,5.0,90,0.00,,,0.00,Rainwise IP-100,2013-10-13 11:31:00,
2013-10-13 07:36:00,51.8,49.0,30.38,ENE,67,2.3,5.0,90,0.00,,,0.00,Rainwise IP-100,2013-10-13 11:36:00,
2013-10-13 07:41:00,52.0,49.0,30.38,ENE,67,2.1,4.0,90,0.00,,,0.00,Rainwise IP-100,2013-10-13 11:41:00,
2013-10-13 07:46:00,52.4,49.0,30.38,ENE,67,4.7,4.7,90,0.00,,,0.00,Rainwise IP-100,2013-10-13 11:46:00,
2013-10-13 07:51:00,52.7,50.0,30.39,ENE,67,2.8,6.0,89,0.00,,,0.00,Rainwise IP-100,2013-10-13 11:51:00,
2013-10-13 07:56:00,53.0,49.0,30.39,ENE,67,2.8,7.0,88,0.00,,,0.00,Rainwise IP-100,2013-10-13 11:56:00,
2013-10-13 08:01:00,53.4,50.0,30.39,ENE,67,5.8,8.0,88,0.00,,,0.00,Rainwise IP-100,2013-10-13 12:01:00,
2013-10-13 08:06:00,53.7,50.0,30.39,ENE,67,1.9,8.0,87,0.00,,,0.00,Rainwise IP-100,2013-10-13 12:06:00,
2013-10-13 08:11:00,54.1,50.0,30.39,NNE,22,4.9,9.0,86,0.00,,,0.00,Rainwise IP-100,2013-10-13 12:11:00,
2013-10-13 08:16:00,54.4,50.0,30.39,ENE,67,7.5,11.0,85,0.00,,,0.00,Rainwise IP-100,2013-10-13 12:16:00,
2013-10-13 08:21:00,54.6,50.0,30.39,NNE,22,4.2,11.0,84,0.00,,,0.00,Rainwise IP-100,2013-10-13 12:21:00,
2013-10-13 08:26:00,54.8,50.0,30.39,ESE,112,3.7,11.0,83,0.00,,,0.00,Rainwise IP-100,2013-10-13 12:26:00,
2013-10-13 08:31:00,55.0,50.0,30.40,ENE,67,1.2,11.0,82,0.00,,,0.00,Rainwise IP-100,2013-10-13 12:31:00,
2013-10-13 08:36:00,55.1,50.0,30.39,ESE,112,2.8,12.0,82,0.00,,,0.00,Rainwise IP-100,2013-10-13 12:36:00,
2013-10-13 08:41:00,55.2,50.0,30.39,ENE,67,7.0,16.0,81,0.00,,,0.00,Rainwise IP-100,2013-10-13 12:41:00,
2013-10-13 08:46:00,55.2,49.0,30.39,SE,135,8.9,14.0,80,0.00,,,0.00,Rainwise IP-100,2013-10-13 12:46:00,
2013-10-13 08:51:00,55.3,49.0,30.40,ENE,67,1.4,14.0,79,0.00,,,0.00,Rainwise IP-100,2013-10-13 12:51:00,
2013-10-13 08:56:00,55.6,50.0,30.40,NE,45,7.9,15.0,79,0.00,,,0.00,Rainwise IP-100,2013-10-13 12:56:00,
2013-10-13 09:01:00,55.9,49.0,30.40,ESE,112,11.7,18.0,78,0.00,,,0.00,Rainwise IP-100,2013-10-13 13:01:00,
2013-10-13 09:06:00,56.1,49.0,30.40,ENE,67,9.3,16.0,77,0.00,,,0.00,Rainwise IP-100,2013-10-13 13:06:00,
2013-10-13 09:11:00,56.1,49.0,30.40,SSE,157,2.3,15.0,77,0.00,,,0.00,Rainwise IP-100,2013-10-13 13:11:00,
2013-10-13 09:16:00,56.1,49.0,30.40,East,90,2.3,13.0,77,0.00,,,0.00,Rainwise IP-100,2013-10-13 13:16:00,
2013-10-13 09:21:00,56.1,49.0,30.40,ENE,67,8.2,16.0,77,0.00,,,0.00,Rainwise IP-100,2013-10-13 13:21:00,
2013-10-13 09:26:00,56.1,48.0,30.41,ENE,67,8.4,14.0,76,0.00,,,0.00,Rainwise IP-100,2013-10-13 13:26:00,
2013-10-13 09:31:00,55.9,48.0,30.41,ENE,67,8.6,15.0,76,0.00,,,0.00,Rainwise IP-100,2013-10-13 13:31:00,
2013-10-13 09:36:00,55.8,48.0,30.41,ESE,112,4.9,18.0,76,0.00,,,0.00,Rainwise IP-100,2013-10-13 13:36:00,
2013-10-13 09:41:00,56.2,48.0,30.40,ENE,67,12.4,18.0,76,0.00,,,0.00,Rainwise IP-100,2013-10-13 13:41:00,
2013-10-13 09:46:00,56.0,48.0,30.41,East,90,8.9,20.0,75,0.00,,,0.00,Rainwise IP-100,2013-10-13 13:46:00,
2013-10-13 09:51:00,55.3,47.0,30.41,ENE,67,14.0,16.0,74,0.00,,,0.00,Rainwise IP-100,2013-10-13 13:51:00,
2013-10-13 09:56:00,55.0,47.0,30.41,ENE,67,9.1,17.0,75,0.00,,,0.00,Rainwise IP-100,2013-10-13 13:56:00,
2013-10-13 10:01:00,55.1,47.0,30.40,East,90,11.7,16.0,76,0.00,,,0.00,Rainwise IP-100,2013-10-13 14:01:00,
2013-10-13 10:06:00,55.5,48.0,30.41,East,90,6.1,14.0,76,0.00,,,0.00,Rainwise IP-100,2013-10-13 14:06:00,
2013-10-13 10:11:00,55.7,48.0,30.41,ENE,67,6.5,13.0,75,0.00,,,0.00,Rainwise IP-100,2013-10-13 14:11:00,
2013-10-13 10:16:00,55.6,48.0,30.41,ENE,67,7.7,21.0,75,0.00,,,0.00,Rainwise IP-100,2013-10-13 14:16:00,
2013-10-13 10:21:00,55.4,47.0,30.41,ENE,67,6.8,19.0,75,0.00,,,0.00,Rainwise IP-100,2013-10-13 14:21:00,
2013-10-13 10:26:00,55.4,47.0,30.41,NE,45,8.9,14.0,75,0.00,,,0.00,Rainwise IP-100,2013-10-13 14:26:00,
2013-10-13 10:31:00,55.3,47.0,30.40,NE,45,6.5,14.0,75,0.00,,,0.00,Rainwise IP-100,2013-10-13 14:31:00,
2013-10-13 10:36:00,55.3,47.0,30.41,NNE,22,4.2,14.0,76,0.00,,,0.00,Rainwise IP-100,2013-10-13 14:36:00,
2013-10-13 10:41:00,55.9,48.0,30.41,East,90,4.2,11.0,76,0.00,,,0.00,Rainwise IP-100,2013-10-13 14:41:00,
2013-10-13 10:46:00,56.8,49.0,30.41,ENE,67,4.2,14.0,76,0.00,,,0.00,Rainwise IP-100,2013-10-13 14:46:00,
2013-10-13 10:51:00,57.7,50.0,30.41,ENE,67,8.6,15.0,74,0.00,,,0.00,Rainwise IP-100,2013-10-13 14:51:00,
2013-10-13 10:56:00,57.8,49.0,30.41,NE,45,6.8,13.0,72,0.00,,,0.00,Rainwise IP-100,2013-10-13 14:56:00,
2013-10-13 11:01:00,57.7,48.0,30.41,NE,45,10.5,14.0,71,0.00,,,0.00,Rainwise IP-100,2013-10-13 15:01:00,
2013-10-13 11:06:00,57.7,48.0,30.41,ENE,67,0.0,12.0,71,0.00,,,0.00,Rainwise IP-100,2013-10-13 15:06:00,
2013-10-13 11:11:00,57.9,49.0,30.41,ENE,67,5.4,14.0,71,0.00,,,0.00,Rainwise IP-100,2013-10-13 15:11:00,
2013-10-13 11:16:00,58.3,49.0,30.41,East,90,2.1,14.0,71,0.00,,,0.00,Rainwise IP-100,2013-10-13 15:16:00,
2013-10-13 11:21:00,58.7,49.0,30.41,East,90,6.1,8.0,70,0.00,,,0.00,Rainwise IP-100,2013-10-13 15:21:00,
2013-10-13 11:26:00,59.0,49.0,30.41,ENE,67,2.8,16.0,69,0.00,,,0.00,Rainwise IP-100,2013-10-13 15:26:00,
2013-10-13 11:31:00,59.0,49.0,30.41,NNE,22,6.5,15.0,69,0.00,,,0.00,Rainwise IP-100,2013-10-13 15:31:00,
2013-10-13 11:36:00,58.6,49.0,30.41,ENE,67,5.6,14.0,69,0.00,,,0.00,Rainwise IP-100,2013-10-13 15:36:00,
2013-10-13 11:41:00,58.3,48.0,30.41,NE,45,1.4,12.0,69,0.00,,,0.00,Rainwise IP-100,2013-10-13 15:41:00,
2013-10-13 11:46:00,58.0,48.0,30.41,ENE,67,4.0,10.0,69,0.00,,,0.00,Rainwise IP-100,2013-10-13 15:46:00,
2013-10-13 11:51:00,57.7,48.0,30.41,NNE,22,2.8,10.0,70,0.00,,,0.00,Rainwise IP-100,2013-10-13 15:51:00,
2013-10-13 11:56:00,57.7,48.0,30.41,ENE,67,2.3,12.0,70,0.00,,,0.00,Rainwise IP-100,2013-10-13 15:56:00,
2013-10-13 12:01:00,57.8,48.0,30.41,ENE,67,3.3,14.0,70,0.00,,,0.00,Rainwise IP-100,2013-10-13 16:01:00,
2013-10-13 12:06:00,57.8,48.0,30.40,ENE,67,3.5,10.0,70,0.00,,,0.00,Rainwise IP-100,2013-10-13 16:06:00,
2013-10-13 12:11:00,58.0,48.0,30.40,NE,45,2.8,14.0,70,0.00,,,0.00,Rainwise IP-100,2013-10-13 16:11:00,
2013-10-13 12:16:00,58.3,48.0,30.40,ENE,67,7.9,13.0,69,0.00,,,0.00,Rainwise IP-100,2013-10-13 16:16:00,
2013-10-13 12:21:00,58.3,48.0,30.40,ENE,67,3.0,14.0,69,0.00,,,0.00,Rainwise IP-100,2013-10-13 16:21:00,
2013-10-13 12:26:00,58.5,49.0,30.39,ENE,67,5.1,9.0,69,0.00,,,0.00,Rainwise IP-100,2013-10-13 16:26:00,
2013-10-13 12:31:00,58.8,48.0,30.40,NE,45,10.5,13.0,68,0.00,,,0.00,Rainwise IP-100,2013-10-13 16:31:00,
2013-10-13 12:36:00,58.8,48.0,30.39,ENE,67,4.9,16.0,68,0.00,,,0.00,Rainwise IP-100,2013-10-13 16:36:00,
2013-10-13 12:41:00,58.8,48.0,30.40,ENE,67,4.0,11.0,67,0.00,,,0.00,Rainwise IP-100,2013-10-13 16:41:00,
2013-10-13 12:46:00,59.0,48.0,30.39,ENE,67,2.1,11.0,68,0.00,,,0.00,Rainwise IP-100,2013-10-13 16:46:00,
2013-10-13 12:51:00,59.4,49.0,30.39,NE,45,7.7,8.0,68,0.00,,,0.00,Rainwise IP-100,2013-10-13 16:51:00,
2013-10-13 12:56:00,59.6,48.0,30.39,ENE,67,5.1,10.0,67,0.00,,,0.00,Rainwise IP-100,2013-10-13 16:56:00,
2013-10-13 13:01:00,59.6,48.0,30.39,NE,45,6.1,12.0,67,0.00,,,0.00,Rainwise IP-100,2013-10-13 17:01:00,
2013-10-13 13:06:00,59.9,49.0,30.39,ENE,67,5.1,10.0,67,0.00,,,0.00,Rainwise IP-100,2013-10-13 17:06:00,
2013-10-13 13:11:00,60.0,48.0,30.39,ENE,67,3.3,13.0,66,0.00,,,0.00,Rainwise IP-100,2013-10-13 17:11:00,
2013-10-13 13:16:00,59.7,48.0,30.39,NNW,337,2.3,12.0,66,0.00,,,0.00,Rainwise IP-100,2013-10-13 17:16:00,
2013-10-13 13:21:00,60.0,48.0,30.39,NE,45,4.0,9.0,66,0.00,,,0.00,Rainwise IP-100,2013-10-13 17:21:00,
2013-10-13 13:26:00,60.1,48.0,30.39,SE,135,1.4,14.0,66,0.00,,,0.00,Rainwise IP-100,2013-10-13 17:26:00,
2013-10-13 13:31:00,59.9,48.0,30.39,ENE,67,5.1,10.0,65,0.00,,,0.00,Rainwise IP-100,2013-10-13 17:31:00,
2013-10-13 13:36:00,59.4,47.0,30.39,NE,45,6.3,9.0,65,0.00,,,0.00,Rainwise IP-100,2013-10-13 17:36:00,
2013-10-13 13:41:00,58.6,47.0,30.39,NE,45,6.3,13.0,66,0.00,,,0.00,Rainwise IP-100,2013-10-13 17:41:00,
2013-10-13 13:46:00,58.4,47.0,30.39,ENE,67,4.2,13.0,67,0.00,,,0.00,Rainwise IP-100,2013-10-13 17:46:00,
2013-10-13 13:51:00,58.3,47.0,30.39,ENE,67,10.5,13.0,67,0.00,,,0.00,Rainwise IP-100,2013-10-13 17:51:00,
2013-10-13 13:56:00,58.3,47.0,30.39,ENE,67,1.2,12.0,68,0.00,,,0.00,Rainwise IP-100,2013-10-13 17:56:00,
2013-10-13 14:01:00,58.5,48.0,30.39,NE,45,1.9,10.0,68,0.00,,,0.00,Rainwise IP-100,2013-10-13 18:01:00,
2013-10-13 14:06:00,58.3,47.0,30.38,NNE,22,10.0,10.0,67,0.00,,,0.00,Rainwise IP-100,2013-10-13 18:06:00,
2013-10-13 14:11:00,58.2,47.0,30.38,ENE,67,4.0,12.0,67,0.00,,,0.00,Rainwise IP-100,2013-10-13 18:11:00,
2013-10-13 14:16:00,58.3,47.0,30.39,NE,45,2.8,12.0,68,0.00,,,0.00,Rainwise IP-100,2013-10-13 18:16:00,
2013-10-13 14:21:00,58.2,47.0,30.39,SSE,157,4.4,12.0,67,0.00,,,0.00,Rainwise IP-100,2013-10-13 18:21:00,
2013-10-13 14:26:00,58.1,47.0,30.39,NNE,22,2.6,9.0,68,0.00,,,0.00,Rainwise IP-100,2013-10-13 18:26:00,
2013-10-13 14:31:00,58.1,47.0,30.39,ENE,67,5.6,12.0,68,0.00,,,0.00,Rainwise IP-100,2013-10-13 18:31:00,
2013-10-13 14:36:00,57.9,47.0,30.39,ENE,67,1.4,14.0,67,0.00,,,0.00,Rainwise IP-100,2013-10-13 18:36:00,
2013-10-13 14:41:00,57.6,47.0,30.39,NE,45,8.2,11.0,68,0.00,,,0.00,Rainwise IP-100,2013-10-13 18:41:00,
2013-10-13 14:46:00,57.4,47.0,30.39,ENE,67,2.6,11.0,68,0.00,,,0.00,Rainwise IP-100,2013-10-13 18:46:00,
2013-10-13 14:51:00,57.4,47.0,30.39,ENE,67,8.2,11.0,69,0.00,,,0.00,Rainwise IP-100,2013-10-13 18:51:00,
2013-10-13 14:56:00,57.7,47.0,30.38,ENE,67,8.4,14.0,68,0.00,,,0.00,Rainwise IP-100,2013-10-13 18:56:00,
2013-10-13 15:01:00,57.8,47.0,30.39,NNE,22,2.8,14.0,67,0.00,,,0.00,Rainwise IP-100,2013-10-13 19:01:00,
2013-10-13 15:06:00,57.7,47.0,30.38,NNE,22,5.4,14.0,67,0.00,,,0.00,Rainwise IP-100,2013-10-13 19:06:00,
2013-10-13 15:11:00,57.9,47.0,30.38,NE,45,10.3,13.0,67,0.00,,,0.00,Rainwise IP-100,2013-10-13 19:11:00,
2013-10-13 15:16:00,58.0,47.0,30.39,NNE,22,10.7,14.0,66,0.00,,,0.00,Rainwise IP-100,2013-10-13 19:16:00,
2013-10-13 15:21:00,58.1,47.0,30.38,NE,45,7.2,10.0,66,0.00,,,0.00,Rainwise IP-100,2013-10-13 19:21:00,
2013-10-13 15:26:00,58.3,47.0,30.38,NNE,22,1.9,15.0,66,0.00,,,0.00,Rainwise IP-100,2013-10-13 19:26:00,
2013-10-13 15:31:00,58.0,47.0,30.38,ENE,67,6.1,12.0,66,0.00,,,0.00,Rainwise IP-100,2013-10-13 19:31:00,
2013-10-13 15:36:00,57.8,47.0,30.38,ENE,67,5.4,8.0,67,0.00,,,0.00,Rainwise IP-100,2013-10-13 19:36:00,
2013-10-13 15:41:00,58.1,47.0,30.38,NE,45,2.1,11.0,67,0.00,,,0.00,Rainwise IP-100,2013-10-13 19:41:00,
2013-10-13 15:46:00,58.1,47.0,30.38,ESE,112,7.5,13.0,66,0.00,,,0.00,Rainwise IP-100,2013-10-13 19:46:00,
2013-10-13 15:51:00,58.6,47.0,30.38,NNE,22,4.4,12.0,66,0.00,,,0.00,Rainwise IP-100,2013-10-13 19:51:00,
2013-10-13 15:56:00,58.8,47.0,30.38,NNE,22,3.3,14.0,66,0.00,,,0.00,Rainwise IP-100,2013-10-13 19:56:00,
2013-10-13 16:01:00,58.4,47.0,30.38,NNW,337,1.9,11.0,66,0.00,,,0.00,Rainwise IP-100,2013-10-13 20:01:00,
2013-10-13 16:06:00,57.6,47.0,30.38,ENE,67,6.1,13.0,67,0.00,,,0.00,Rainwise IP-100,2013-10-13 20:06:00,
2013-10-13 16:11:00,56.7,46.0,30.38,NNE,22,3.0,12.0,68,0.00,,,0.00,Rainwise IP-100,2013-10-13 20:11:00,
2013-10-13 16:16:00,56.2,46.0,30.38,ENE,67,6.1,11.0,69,0.00,,,0.00,Rainwise IP-100,2013-10-13 20:16:00,
2013-10-13 16:21:00,56.3,47.0,30.38,NE,45,2.3,11.0,70,0.00,,,0.00,Rainwise IP-100,2013-10-13 20:21:00,
2013-10-13 16:26:00,56.4,47.0,30.38,East,90,2.6,11.0,69,0.00,,,0.00,Rainwise IP-100,2013-10-13 20:26:00,
2013-10-13 16:31:00,56.6,47.0,30.39,East,90,2.8,9.0,69,0.00,,,0.00,Rainwise IP-100,2013-10-13 20:31:00,
2013-10-13 16:36:00,56.9,47.0,30.38,North,360,4.0,10.0,69,0.00,,,0.00,Rainwise IP-100,2013-10-13 20:36:00,
2013-10-13 16:41:00,57.3,47.0,30.38,ENE,67,6.3,8.0,68,0.00,,,0.00,Rainwise IP-100,2013-10-13 20:41:00,
2013-10-13 16:46:00,57.2,46.0,30.39,ENE,67,6.8,7.0,67,0.00,,,0.00,Rainwise IP-100,2013-10-13 20:46:00,
2013-10-13 16:51:00,56.3,45.0,30.38,ENE,67,3.5,7.0,67,0.00,,,0.00,Rainwise IP-100,2013-10-13 20:51:00,
2013-10-13 16:56:00,55.5,46.0,30.38,ENE,67,3.7,11.0,68,0.00,,,0.00,Rainwise IP-100,2013-10-13 20:56:00,
2013-10-13 17:01:00,55.0,46.0,30.38,NE,45,2.8,7.0,70,0.00,,,0.00,Rainwise IP-100,2013-10-13 21:01:00,
2013-10-13 17:06:00,54.7,46.0,30.38,ENE,67,4.0,11.0,71,0.00,,,0.00,Rainwise IP-100,2013-10-13 21:06:00,
2013-10-13 17:11:00,54.4,46.0,30.38,East,90,5.4,8.0,71,0.00,,,0.00,Rainwise IP-100,2013-10-13 21:11:00,
2013-10-13 17:16:00,54.2,45.0,30.38,ENE,67,2.1,7.0,72,0.00,,,0.00,Rainwise IP-100,2013-10-13 21:16:00,
2013-10-13 17:21:00,54.1,46.0,30.38,NE,45,1.9,7.0,73,0.00,,,0.00,Rainwise IP-100,2013-10-13 21:21:00,
2013-10-13 17:26:00,54.0,46.0,30.38,NNE,22,4.2,6.0,73,0.00,,,0.00,Rainwise IP-100,2013-10-13 21:26:00,
2013-10-13 17:31:00,54.0,46.0,30.38,NE,45,2.6,8.0,74,0.00,,,0.00,Rainwise IP-100,2013-10-13 21:31:00,
2013-10-13 17:36:00,54.0,46.0,30.38,ENE,67,1.6,6.0,73,0.00,,,0.00,Rainwise IP-100,2013-10-13 21:36:00,
2013-10-13 17:41:00,53.7,45.0,30.39,NE,45,1.4,6.0,73,0.00,,,0.00,Rainwise IP-100,2013-10-13 21:41:00,
2013-10-13 17:46:00,53.4,45.0,30.38,NE,45,2.1,5.0,73,0.00,,,0.00,Rainwise IP-100,2013-10-13 21:46:00,
2013-10-13 17:51:00,53.1,45.0,30.38,ENE,67,3.3,5.0,75,0.00,,,0.00,Rainwise IP-100,2013-10-13 21:51:00,
2013-10-13 17:56:00,52.8,45.0,30.38,ENE,67,2.8,6.0,75,0.00,,,0.00,Rainwise IP-100,2013-10-13 21:56:00,
2013-10-13 18:01:00,52.5,45.0,30.38,ENE,67,5.6,5.6,76,0.00,,,0.00,Rainwise IP-100,2013-10-13 22:01:00,
2013-10-13 18:06:00,52.0,45.0,30.38,NE,45,2.6,6.0,76,0.00,,,0.00,Rainwise IP-100,2013-10-13 22:06:00,
2013-10-13 18:11:00,51.7,45.0,30.38,East,90,1.4,4.0,77,0.00,,,0.00,Rainwise IP-100,2013-10-13 22:11:00,
2013-10-13 18:16:00,51.4,45.0,30.38,NE,45,1.6,7.0,78,0.00,,,0.00,Rainwise IP-100,2013-10-13 22:16:00,
2013-10-13 18:21:00,51.2,45.0,30.38,ENE,67,5.6,6.0,78,0.00,,,0.00,Rainwise IP-100,2013-10-13 22:21:00,
2013-10-13 18:26:00,51.0,45.0,30.38,ENE,67,4.0,6.0,79,0.00,,,0.00,Rainwise IP-100,2013-10-13 22:26:00,
2013-10-13 18:32:00,50.7,45.0,30.38,NE,45,3.5,5.0,80,0.00,,,0.00,Rainwise IP-100,2013-10-13 22:32:00,
2013-10-13 18:37:00,50.5,45.0,30.38,ENE,67,2.8,5.0,80,0.00,,,0.00,Rainwise IP-100,2013-10-13 22:37:00,
2013-10-13 18:42:00,50.4,45.0,30.38,ENE,67,3.7,4.0,81,0.00,,,0.00,Rainwise IP-100,2013-10-13 22:42:00,
2013-10-13 18:47:00,50.2,44.0,30.38,ENE,67,4.2,5.0,81,0.00,,,0.00,Rainwise IP-100,2013-10-13 22:47:00,
2013-10-13 18:52:00,50.1,44.0,30.38,ENE,67,2.6,5.0,81,0.00,,,0.00,Rainwise IP-100,2013-10-13 22:52:00,
2013-10-13 18:57:00,50.0,45.0,30.38,ENE,67,3.3,4.0,82,0.00,,,0.00,Rainwise IP-100,2013-10-13 22:57:00,
2013-10-13 19:02:00,49.9,45.0,30.38,NE,45,3.3,4.0,82,0.00,,,0.00,Rainwise IP-100,2013-10-13 23:02:00,
2013-10-13 19:07:00,49.7,45.0,30.38,ENE,67,3.7,4.0,82,0.00,,,0.00,Rainwise IP-100,2013-10-13 23:07:00,
2013-10-13 19:12:00,49.5,45.0,30.38,NE,45,3.0,5.0,83,0.00,,,0.00,Rainwise IP-100,2013-10-13 23:12:00,
2013-10-13 19:17:00,49.3,44.0,30.38,ENE,67,4.0,5.0,83,0.00,,,0.00,Rainwise IP-100,2013-10-13 23:17:00,
2013-10-13 19:22:00,49.1,44.0,30.38,ENE,67,4.4,5.0,83,0.00,,,0.00,Rainwise IP-100,2013-10-13 23:22:00,
2013-10-13 19:27:00,48.9,44.0,30.38,ENE,67,2.1,6.0,84,0.00,,,0.00,Rainwise IP-100,2013-10-13 23:27:00,
2013-10-13 19:32:00,48.9,44.0,30.37,ENE,67,3.0,6.0,84,0.00,,,0.00,Rainwise IP-100,2013-10-13 23:32:00,
2013-10-13 19:37:00,48.8,45.0,30.37,ENE,67,4.4,6.0,85,0.00,,,0.00,Rainwise IP-100,2013-10-13 23:37:00,
2013-10-13 19:42:00,48.7,45.0,30.37,ENE,67,2.8,7.0,85,0.00,,,0.00,Rainwise IP-100,2013-10-13 23:42:00,
2013-10-13 19:47:00,48.6,45.0,30.38,ESE,112,2.1,7.0,85,0.00,,,0.00,Rainwise IP-100,2013-10-13 23:47:00,
2013-10-13 19:52:00,48.4,44.0,30.38,ENE,67,0.0,4.0,85,0.00,,,0.00,Rainwise IP-100,2013-10-13 23:52:00,
2013-10-13 19:57:00,48.3,44.0,30.38,East,90,2.1,4.0,86,0.00,,,0.00,Rainwise IP-100,2013-10-13 23:57:00,
2013-10-13 20:02:00,48.5,45.0,30.38,East,90,1.9,4.0,86,0.00,,,0.00,Rainwise IP-100,2013-10-14 00:02:00,
2013-10-13 20:07:00,48.6,45.0,30.38,East,90,2.8,4.0,86,0.00,,,0.00,Rainwise IP-100,2013-10-14 00:07:00,
2013-10-13 20:12:00,48.5,45.0,30.38,East,90,2.8,5.0,86,0.00,,,0.00,Rainwise IP-100,2013-10-14 00:12:00,
2013-10-13 20:17:00,48.5,45.0,30.38,ENE,67,4.2,5.0,86,0.00,,,0.00,Rainwise IP-100,2013-10-14 00:17:00,
2013-10-13 20:22:00,48.4,44.0,30.38,East,90,5.6,5.6,86,0.00,,,0.00,Rainwise IP-100,2013-10-14 00:22:00,
2013-10-13 20:27:00,48.3,45.0,30.38,ENE,67,6.3,6.3,87,0.00,,,0.00,Rainwise IP-100,2013-10-14 00:27:00,
2013-10-13 20:32:00,48.2,45.0,30.38,East,90,4.7,7.0,87,0.00,,,0.00,Rainwise IP-100,2013-10-14 00:32:00,
2013-10-13 20:37:00,48.1,45.0,30.38,ENE,67,3.0,5.0,87,0.00,,,0.00,Rainwise IP-100,2013-10-14 00:37:00,
2013-10-13 20:42:00,47.9,45.0,30.38,ESE,112,3.3,5.0,87,0.00,,,0.00,Rainwise IP-100,2013-10-14 00:42:00,
2013-10-13 20:47:00,47.8,44.0,30.38,East,90,3.7,5.0,87,0.00,,,0.00,Rainwise IP-100,2013-10-14 00:47:00,
2013-10-13 20:52:00,47.8,44.0,30.38,East,90,2.8,5.0,88,0.00,,,0.00,Rainwise IP-100,2013-10-14 00:52:00,
2013-10-13 20:57:00,47.8,44.0,30.39,East,90,2.8,4.0,88,0.00,,,0.00,Rainwise IP-100,2013-10-14 00:57:00,
2013-10-13 21:02:00,47.9,45.0,30.39,ENE,67,3.7,6.0,88,0.00,,,0.00,Rainwise IP-100,2013-10-14 01:02:00,
2013-10-13 21:07:00,48.1,45.0,30.39,ENE,67,3.0,4.0,88,0.00,,,0.00,Rainwise IP-100,2013-10-14 01:07:00,
2013-10-13 21:12:00,48.1,45.0,30.39,ENE,67,2.3,4.0,88,0.00,,,0.00,Rainwise IP-100,2013-10-14 01:12:00,
2013-10-13 21:17:00,48.0,45.0,30.39,East,90,2.3,5.0,88,0.00,,,0.00,Rainwise IP-100,2013-10-14 01:17:00,
2013-10-13 21:22:00,48.0,45.0,30.39,ENE,67,2.1,4.0,88,0.00,,,0.00,Rainwise IP-100,2013-10-14 01:22:00,
2013-10-13 21:27:00,47.9,45.0,30.40,ENE,67,4.0,4.0,88,0.00,,,0.00,Rainwise IP-100,2013-10-14 01:27:00,
2013-10-13 21:32:00,47.9,45.0,30.39,ENE,67,2.6,4.0,88,0.00,,,0.00,Rainwise IP-100,2013-10-14 01:32:00,
2013-10-13 21:37:00,48.0,45.0,30.39,East,90,2.8,4.0,88,0.00,,,0.00,Rainwise IP-100,2013-10-14 01:37:00,
2013-10-13 21:42:00,47.9,45.0,30.39,East,90,4.0,4.0,88,0.00,,,0.00,Rainwise IP-100,2013-10-14 01:42:00,
2013-10-13 21:47:00,47.9,45.0,30.39,East,90,4.0,4.0,88,0.00,,,0.00,Rainwise IP-100,2013-10-14 01:47:00,
2013-10-13 21:52:00,48.0,45.0,30.39,East,90,3.7,5.0,88,0.00,,,0.00,Rainwise IP-100,2013-10-14 01:52:00,
2013-10-13 21:57:00,48.1,45.0,30.39,East,90,2.3,4.0,88,0.00,,,0.00,Rainwise IP-100,2013-10-14 01:57:00,
2013-10-13 22:02:00,48.2,45.0,30.39,ENE,67,2.3,4.0,88,0.00,,,0.00,Rainwise IP-100,2013-10-14 02:02:00,
2013-10-13 22:07:00,48.2,45.0,30.39,ENE,67,1.9,4.0,88,0.00,,,0.00,Rainwise IP-100,2013-10-14 02:07:00,
2013-10-13 22:12:00,48.2,45.0,30.39,ENE,67,3.0,4.0,88,0.00,,,0.00,Rainwise IP-100,2013-10-14 02:12:00,
2013-10-13 22:17:00,48.2,45.0,30.39,ENE,67,3.3,4.0,88,0.00,,,0.00,Rainwise IP-100,2013-10-14 02:17:00,
2013-10-13 22:22:00,48.2,45.0,30.39,East,90,2.6,4.0,88,0.00,,,0.00,Rainwise IP-100,2013-10-14 02:22:00,
2013-10-13 22:27:00,48.3,45.0,30.39,East,90,3.0,3.0,87,0.00,,,0.00,Rainwise IP-100,2013-10-14 02:27:00,
2013-10-13 22:32:00,48.5,45.0,30.39,ENE,67,3.7,4.0,87,0.00,,,0.00,Rainwise IP-100,2013-10-14 02:32:00,
2013-10-13 22:37:00,48.6,45.0,30.39,East,90,2.6,4.0,87,0.00,,,0.00,Rainwise IP-100,2013-10-14 02:37:00,
2013-10-13 22:42:00,48.4,45.0,30.39,ENE,67,3.3,4.0,87,0.00,,,0.00,Rainwise IP-100,2013-10-14 02:42:00,
2013-10-13 22:47:00,48.3,45.0,30.39,East,90,2.3,5.0,87,0.00,,,0.00,Rainwise IP-100,2013-10-14 02:47:00,
2013-10-13 22:52:00,48.3,45.0,30.39,ENE,67,2.6,5.0,87,0.00,,,0.00,Rainwise IP-100,2013-10-14 02:52:00,
2013-10-13 22:57:00,48.3,45.0,30.39,ENE,67,2.6,4.0,87,0.00,,,0.00,Rainwise IP-100,2013-10-14 02:57:00,
2013-10-13 23:02:00,48.3,45.0,30.39,ENE,67,3.0,4.0,87,0.00,,,0.00,Rainwise IP-100,2013-10-14 03:02:00,
2013-10-13 23:07:00,48.2,45.0,30.39,ENE,67,3.0,4.0,87,0.00,,,0.00,Rainwise IP-100,2013-10-14 03:07:00,
2013-10-13 23:12:00,48.2,45.0,30.39,East,90,3.5,4.0,87,0.00,,,0.00,Rainwise IP-100,2013-10-14 03:12:00,
2013-10-13 23:17:00,48.2,45.0,30.39,East,90,2.6,4.0,88,0.00,,,0.00,Rainwise IP-100,2013-10-14 03:17:00,
2013-10-13 23:22:00,48.2,45.0,30.39,ENE,67,3.3,4.0,88,0.00,,,0.00,Rainwise IP-100,2013-10-14 03:22:00,
2013-10-13 23:27:00,48.2,45.0,30.39,ENE,67,2.8,3.0,88,0.00,,,0.00,Rainwise IP-100,2013-10-14 03:27:00,
2013-10-13 23:32:00,48.2,45.0,30.39,East,90,3.5,4.0,88,0.00,,,0.00,Rainwise IP-100,2013-10-14 03:32:00,
2013-10-13 23:37:00,48.2,45.0,30.39,East,90,3.7,4.0,88,0.00,,,0.00,Rainwise IP-100,2013-10-14 03:37:00,
2013-10-13 23:42:00,48.2,45.0,30.39,East,90,2.3,5.0,88,0.00,,,0.00,Rainwise IP-100,2013-10-14 03:42:00,
2013-10-13 23:47:00,48.1,45.0,30.39,East,90,2.6,5.0,88,0.00,,,0.00,Rainwise IP-100,2013-10-14 03:47:00,
2013-10-13 23:52:00,48.1,45.0,30.38,East,90,5.4,5.4,88,0.00,,,0.00,Rainwise IP-100,2013-10-14 03:52:00,
2013-10-13 23:57:00,48.1,45.0,30.38,East,90,3.3,6.0,88,0.00,,,0.00,Rainwise IP-100,2013-10-14 03:57:00,